Weather History for KSLO - January, 2013

Change the Weather History Date:

Thursday, January 3, 2013

  Actual Average Record
Temperature  
Mean Temperature 26 °F -  
Max Temperature 35 °F - - ()
Min Temperature 18 °F - - ()
Degree Days  
Heating Degree Days 38    
Moisture  
Dew Point 22 °F    
Average Humidity 79    
Maximum Humidity 87    
Minimum Humidity 70    
Precipitation  
Precipitation 0.00 in - - ()
Sea Level Pressure  
Sea Level Pressure 30.31 in    
Wind  
Wind Speed 6 mph (WSW)    
Max Wind Speed 10 mph    
Max Gust Speed -    
Visibility 9 miles    
Events      
T = Trace of Precipitation, MM = Missing Value Source: NWS Daily Summary

Daily Weather History Graph

Daily Weather History Graph

Search for Another Location

Airport or City:

Trip Planner

Search our weather history database for the weather conditions in past years. The results will help you decide how hot, cold, wet, or windy it might be!

Date:

Astronomy

Jan. 03, 2013 Rise Set
Actual Time 7:14 AM CST 4:47 PM CST
Civil Twilight 6:44 AM CST 5:16 PM CST
Nautical Twilight 6:11 AM CST 5:50 PM CST
Astronomical Twilight 5:38 AM CST 6:22 PM CST
Moon 11:17 PM CST (1/3) 10:29 AM CST (1/3)
Length of Visible Light 10h 32m
Length of Day
9h 33m
Waning Gibbous, 65% of the Moon is Illuminated
Jan 3
Waning Gibbous
Jan 4
Last Quarter
Jan 11
New
Jan 18
First Quarter
Jan 26
Full

Hourly Weather History & Observations

Time (CST) Temp. Windchill Dew Point Humidity Pressure Visibility Wind Dir Wind Speed Gust Speed Precip Events Conditions
12:15 AM 19.8 °F 11.9 °F 12.6 °F 74% 30.23 in 10.0 mi South 5.8 mph - N/A   Clear
12:35 AM 19.4 °F 11.5 °F 12.9 °F 76% 30.23 in 10.0 mi SSW 5.8 mph - N/A   Clear
12:55 AM 20.3 °F 12.5 °F 13.1 °F 74% 30.22 in 10.0 mi South 5.8 mph - N/A   Clear
1:15 AM 21.9 °F 14.5 °F 13.6 °F 70% 30.21 in 10.0 mi South 5.8 mph - N/A   Clear
1:35 AM 20.8 °F 14.4 °F 12.7 °F 71% 30.22 in 10.0 mi South 4.6 mph - N/A   Clear
1:55 AM 20.3 °F 13.8 °F 13.6 °F 75% 30.23 in 10.0 mi South 4.6 mph - N/A   Clear
2:15 AM 18.7 °F 11.9 °F 12.7 °F 78% 30.23 in 10.0 mi SSW 4.6 mph - N/A   Clear
2:35 AM 20.1 °F 12.3 °F 14.0 °F 77% 30.23 in 10.0 mi SSW 5.8 mph - N/A   Clear
2:55 AM 20.1 °F 13.6 °F 14.0 °F 77% 30.23 in 10.0 mi SW 4.6 mph - N/A   Clear
3:15 AM 19.9 °F 11.1 °F 14.2 °F 78% 30.23 in 10.0 mi SW 6.9 mph - N/A   Clear
3:35 AM 20.3 °F 11.5 °F 14.7 °F 79% 30.24 in 10.0 mi SW 6.9 mph - N/A   Clear
3:55 AM 21.2 °F 12.6 °F 15.1 °F 77% 30.24 in 10.0 mi WSW 6.9 mph - N/A   Clear
4:15 AM 21.4 °F 12.8 °F 15.4 °F 78% 30.23 in 10.0 mi WSW 6.9 mph - N/A   Clear
4:35 AM 20.1 °F 12.3 °F 14.7 °F 80% 30.24 in 10.0 mi WSW 5.8 mph - N/A   Clear
4:55 AM 20.5 °F 14.0 °F 15.3 °F 80% 30.24 in 10.0 mi West 4.6 mph - N/A   Clear
5:15 AM 19.2 °F 14.1 °F 14.5 °F 82% 30.24 in 10.0 mi West 3.5 mph - N/A   Clear
5:35 AM 19.6 °F 14.5 °F 14.9 °F 82% 30.25 in 10.0 mi WSW 3.5 mph - N/A   Clear
5:55 AM 18.3 °F 13.1 °F 14.4 °F 85% 30.26 in 10.0 mi WSW 3.5 mph - N/A   Clear
6:15 AM 19.2 °F - 15.4 °F 85% 30.26 in 10.0 mi Calm Calm - N/A   Clear
6:35 AM 20.3 °F 15.4 °F 16.3 °F 85% 30.27 in 10.0 mi WSW 3.5 mph - N/A   Clear
6:55 AM 20.1 °F 13.6 °F 16.5 °F 86% 30.28 in 10.0 mi WSW 4.6 mph - N/A   Clear
7:15 AM 20.3 °F 13.8 °F 16.9 °F 87% 30.28 in 10.0 mi SSW 4.6 mph - N/A   Clear
7:35 AM 20.5 °F 14.0 °F 16.7 °F 85% 30.29 in 10.0 mi WSW 4.6 mph - N/A   Clear
7:55 AM 19.6 °F 11.7 °F 15.6 °F 85% 30.30 in 10.0 mi WSW 5.8 mph - N/A   Clear
8:15 AM 20.1 °F 13.6 °F 16.5 °F 86% 30.30 in 7.0 mi WSW 4.6 mph - N/A   Clear
8:35 AM 21.6 °F 14.0 °F 17.6 °F 85% 30.30 in 7.0 mi WSW 5.8 mph - N/A   Clear
8:55 AM 23.5 °F 14.5 °F 19.0 °F 83% 30.31 in 7.0 mi WSW 8.1 mph - N/A   Clear
9:15 AM 25.3 °F 17.6 °F 20.3 °F 81% 30.32 in 7.0 mi WSW 6.9 mph - N/A   Clear
9:35 AM 26.6 °F 19.1 °F 21.6 °F 81% 30.33 in 7.0 mi WSW 6.9 mph - N/A   Clear
9:55 AM 27.9 °F 18.4 °F 22.5 °F 80% 30.34 in 10.0 mi West 10.4 mph - N/A   Clear
10:15 AM 27.9 °F 18.4 °F 22.5 °F 80% 30.35 in 7.0 mi West 10.4 mph - N/A   Clear
10:35 AM 28.4 °F 20.4 °F 22.8 °F 80% 30.35 in 7.0 mi West 8.1 mph - N/A   Clear
10:55 AM 29.3 °F 21.5 °F 23.9 °F 80% 30.35 in 7.0 mi WSW 8.1 mph - N/A   Clear
11:15 AM 30.0 °F 22.4 °F 24.6 °F 80% 30.34 in 7.0 mi WSW 8.1 mph - N/A   Clear
11:35 AM 31.3 °F 23.3 °F 25.5 °F 79% 30.33 in 7.0 mi WSW 9.2 mph - N/A   Mostly Cloudy
11:55 AM 31.6 °F 24.4 °F 25.7 °F 79% 30.33 in 7.0 mi West 8.1 mph - N/A   Overcast
12:15 PM 32.0 °F 25.6 °F 26.2 °F 79% 30.33 in 7.0 mi WSW 6.9 mph - N/A   Mostly Cloudy
12:35 PM 32.0 °F 24.2 °F 26.4 °F 80% 30.31 in 7.0 mi WSW 9.2 mph - N/A   Scattered Clouds
12:55 PM 32.9 °F 25.3 °F 27.0 °F 79% 30.31 in 7.0 mi West 9.2 mph - N/A   Clear
1:15 PM 33.1 °F 27.7 °F 26.8 °F 78% 30.31 in 10.0 mi West 5.8 mph - N/A   Clear
1:35 PM 33.8 °F 27.7 °F 26.6 °F 75% 30.31 in 10.0 mi West 6.9 mph - N/A   Clear
1:55 PM 33.8 °F 27.7 °F 26.6 °F 75% 30.31 in 7.0 mi WSW 6.9 mph - N/A   Clear
2:15 PM 34.7 °F 28.8 °F 27.3 °F 74% 30.32 in 10.0 mi WSW 6.9 mph - N/A   Clear
2:35 PM 34.7 °F 29.6 °F 27.5 °F 75% 30.32 in 10.0 mi WSW 5.8 mph - N/A   Clear
2:55 PM 35.2 °F 29.5 °F 27.3 °F 73% 30.33 in 10.0 mi West 6.9 mph - N/A   Clear
3:15 PM 35.6 °F 29.2 °F 26.6 °F 70% 30.33 in 10.0 mi WSW 8.1 mph - N/A   Clear
3:35 PM 34.9 °F 29.9 °F 27.3 °F 74% 30.33 in 10.0 mi WSW 5.8 mph - N/A   Clear
3:55 PM 34.3 °F 29.2 °F 27.0 °F 74% 30.33 in 10.0 mi WSW 5.8 mph - N/A   Clear
4:15 PM 33.8 °F 28.6 °F 26.6 °F 75% 30.34 in 10.0 mi WSW 5.8 mph - N/A   Clear
4:35 PM 34.2 °F 29.0 °F 25.9 °F 72% 30.34 in 10.0 mi West 5.8 mph - N/A   Clear
4:55 PM 33.1 °F 27.7 °F 25.5 °F 74% 30.34 in 10.0 mi West 5.8 mph - N/A   Clear
5:15 PM 32.9 °F 28.5 °F 25.9 °F 75% 30.35 in 10.0 mi West 4.6 mph - N/A   Mostly Cloudy
5:35 PM 32.9 °F 29.8 °F 25.7 °F 75% 30.35 in 10.0 mi West 3.5 mph - N/A   Overcast
5:55 PM 33.1 °F 28.7 °F 26.2 °F 76% 30.36 in 10.0 mi WSW 4.6 mph - N/A   Overcast
6:15 PM 33.3 °F - 26.4 °F 76% 30.36 in 10.0 mi Calm Calm - N/A   Overcast
6:35 PM 32.2 °F 27.7 °F 26.1 °F 78% 30.36 in 10.0 mi WSW 4.6 mph - N/A   Mostly Cloudy
6:55 PM 32.0 °F 26.4 °F 25.7 °F 78% 30.37 in 10.0 mi SW 5.8 mph - N/A   Scattered Clouds
7:15 PM 30.6 °F 25.8 °F 25.5 °F 82% 30.37 in 10.0 mi WSW 4.6 mph - N/A   Scattered Clouds
7:35 PM 30.6 °F 25.8 °F 24.8 °F 79% 30.37 in 10.0 mi WSW 4.6 mph - N/A   Mostly Cloudy
7:55 PM 31.1 °F 27.7 °F 25.5 °F 80% 30.37 in 10.0 mi West 3.5 mph - N/A   Overcast
8:15 PM 31.1 °F 26.4 °F 25.5 °F 80% 30.38 in 10.0 mi West 4.6 mph - N/A   Overcast
8:35 PM 31.1 °F 26.4 °F 25.5 °F 80% 30.38 in 10.0 mi West 4.6 mph - N/A   Overcast
8:55 PM 30.9 °F 27.5 °F 25.5 °F 80% 30.38 in 10.0 mi West 3.5 mph - N/A   Overcast
9:15 PM 30.6 °F 25.8 °F 25.5 °F 82% 30.38 in 10.0 mi West 4.6 mph - N/A   Overcast
9:35 PM 31.1 °F 26.4 °F 25.7 °F 80% 30.39 in 10.0 mi West 4.6 mph - N/A   Overcast
9:55 PM 32.0 °F 27.5 °F 25.9 °F 78% 30.39 in 10.0 mi West 4.6 mph - N/A   Overcast
10:15 PM 32.0 °F 27.5 °F 26.1 °F 79% 30.39 in 10.0 mi West 4.6 mph - N/A   Overcast
10:35 PM 31.8 °F 28.5 °F 26.2 °F 80% 30.39 in 10.0 mi West 3.5 mph - N/A   Overcast
10:55 PM 31.8 °F - 26.2 °F 80% 30.39 in 10.0 mi Calm Calm - N/A   Overcast
11:15 PM 32.2 °F 28.9 °F 26.6 °F 80% 30.38 in 10.0 mi WSW 3.5 mph - N/A   Overcast
11:35 PM 32.0 °F - 27.0 °F 82% 30.38 in 10.0 mi Calm Calm - N/A   Overcast
11:55 PM 32.0 °F 28.7 °F 27.1 °F 82% 30.38 in 10.0 mi SW 3.5 mph - N/A   Overcast